Tracking 30922 objects as of 2-Jul-2025
HD Live streaming from Space Station
objects crossing your sky now

GEESAT 1-04

Track GEESAT 1-04 now!
10-day predictions


NORAD ID: 52788
Int'l Code: 2022-058D
Perigee: 584.0 km
Apogee: 585.7 km
Inclination: 50.0 °
Period: 96.2 minutes
Semi major axis: 6955 km
RCS: Unknown
Launch date: June 2, 2022
Source: People's Republic of China (PRC)
Launch site: Xichang Space Center, China (XSC)
Your satellite tracking list
SATCOM 4
Track 1 satellite(s)




NASA's NSSDC Master Catalog

Two Line Element Set (TLE):
1 52788U 22058D   25182.80018405  .00003126  00000-0  29398-3 0  9997
2 52788  50.0049  44.8780 0001231 259.1736 100.9069 14.96489875167652
Source of the keplerian elements: AFSPC